Flag for Austria Weather past 2 weeks in Bischofshofen, Salzburg, Austria

Now
66 °F

Mild.


Feels Like: 66 °F
Forecast: 65 / 93 °F
Wind: 12 mph from South

Location: Salzburg-Flughafen

Current Time: Aug 28, 2015 at 4:59:01 AM

Latest Report: Aug 28, 2015 at 4:20 AM


Visibility: N/A

Pressure: 30.01 "Hg (28.16 "Hg at 545m altitude)

Humidity: 68%

Dew point: 55 °F

Location of BischofshofenLocation

Historic Weather in Bischofshofen — Graph

°F

Bischofshofen temperature yesterday

Maximum temperature yesterday: 86 °F (at 2:50 PM)
Minimum temperature yesterday: 57 °F (at 12:50 AM)
Average temperature yesterday: 72 °F

Past Weeks' High & Low Weather Summary

 TemperatureHumidityPressure
High93 °F (Aug 13, 1:50 PM)100% (Aug 16, 6:20 AM)30.30 "Hg (Aug 16, 6:20 AM)
Low50 °F (Aug 23, 3:50 AM)20% (Aug 13, 1:50 PM)29.71 "Hg (Aug 14, 5:20 PM)
Average67 °F70%30.00 "Hg
* Reported Aug 13 3:20 AM — Aug 28 3:20 AM, Bischofshofen, Weather by CustomWeather, © 2015

Note: Actual official high and low records may vary slightly from our data, if they occured in-between our weather recording intervals... More about our weather records

Advertising

Bischofshofen weather history for previous 24 hours

 ConditionsComfort  
Time TempWeatherWind HumidityBarometerVisibility
3:20 AM
Fri, Aug 28
66 °FMild.12 mph68%29.98 "HgN/A
2:50 AM68 °FMild.10 mph64%29.98 "HgN/A
2:20 AM68 °FMild.12 mph69%29.98 "HgN/A
1:50 AM64 °FMild.9 mph78%29.98 "HgN/A
1:20 AM66 °FMild.9 mph73%29.98 "HgN/A
12:50 AM68 °FMild.6 mph69%29.98 "HgN/A
12:20 AM68 °FMild.7 mph73%29.98 "HgN/A
11:50 PM
Thu, Aug 27
68 °FMild.6 mph73%29.98 "HgN/A
11:20 PM70 °FMild.8 mph69%29.98 "HgN/A
10:50 PM68 °FClear.7 mph73%29.95 "Hg10 mi
10:20 PM68 °FClear.8 mph73%29.95 "Hg10 mi
9:50 PM72 °FClear.8 mph65%29.95 "Hg10 mi
9:20 PM72 °FClear.3 mph65%29.95 "Hg10 mi
8:50 PM72 °FSunny.6 mph69%29.95 "Hg10 mi
8:20 PM75 °FSunny.2 mph61%29.95 "Hg10 mi
7:50 PM81 °FPassing clouds.3 mph42%29.95 "HgN/A
7:20 PM84 °FSunny.3 mph37%29.92 "Hg10 mi
6:50 PM84 °FSunny.5 mph40%29.92 "Hg10 mi
6:20 PM84 °FPassing clouds.6 mph37%29.95 "HgN/A
5:50 PM86 °FSunny.7 mph35%29.95 "Hg10 mi
5:20 PM86 °FPassing clouds.6 mph35%29.92 "HgN/A
4:50 PM86 °FPassing clouds.6 mph35%29.95 "HgN/A
4:20 PM86 °FPassing clouds.6 mph35%29.95 "HgN/A
3:50 PM86 °FSunny.5 mph35%29.95 "Hg10 mi
3:20 PM86 °FPassing clouds.6 mph38%29.95 "HgN/A
2:50 PM86 °FPassing clouds.6 mph38%29.95 "HgN/A
2:20 PM84 °FPassing clouds.7 mph40%29.95 "HgN/A
1:50 PM84 °FSunny.3 mph40%29.95 "Hg10 mi
1:20 PM82 °FPassing clouds.7 mph42%29.98 "HgN/A
12:50 PM82 °FSunny.2 mph37%29.98 "Hg10 mi
12:20 PM81 °FSunny.2 mph42%30.01 "Hg10 mi
11:50 AM81 °FPassing clouds.3 mph42%30.04 "HgN/A
11:20 AM77 °FPassing clouds.3 mph47%30.04 "HgN/A
10:50 AM75 °FPassing clouds.6 mph50%30.04 "HgN/A
10:20 AM73 °FSunny.6 mph53%30.04 "Hg10 mi
9:50 AM72 °FSunny.9 mph61%30.04 "Hg10 mi
9:20 AM70 °FSunny.12 mph60%30.04 "Hg10 mi
8:50 AM68 °FSunny.12 mph64%30.04 "Hg10 mi
8:20 AM64 °FSunny.10 mph73%30.04 "Hg10 mi
7:50 AM63 °FSunny.13 mph73%30.04 "Hg10 mi
7:20 AM61 °FSunny.12 mph77%30.04 "Hg10 mi
6:50 AM59 °FClear.9 mph82%30.04 "Hg10 mi
5:50 AM59 °FClear.10 mph82%30.04 "Hg10 mi
5:20 AM61 °FClear.8 mph77%30.04 "Hg10 mi
4:50 AM61 °FCool.9 mph77%30.01 "HgN/A
4:20 AM59 °FCool.8 mph82%30.01 "HgN/A
Weather by CustomWeather, © 2015

See weather overviewHow to use our weather pages